Location: Barrio de Canyet
(41.4665°N, 2.2381°E)
Time: 09:15:57
(UTC+00:00)

GPS 2-04 Rocket1 - Pass Details

Date: 09 April 2020
Orbit: 419 x 548 km, 35.6° (Epoch: 03 June)

Event Time Altitude Azimuth Distance (km) Brightness Sun altitude
Rises 19:55:41 0° 228° (SW) 2,616 6.6 -16.7°
Reaches altitude 10° 19:58:14 10° 213° (SSW) 1,754 5.4 -17.2°
Enters shadow 20:00:44 21° 176° (S) 1,216 4.3 -17.6°
